Location: Newark
(34.7667°N, 118.4167°W)
Time: 10:02:37
(UTC+00:00)

OTV 5 (USA 277) - Visible Passes

Search period start: 22 March 2019 00:00
Search period end: 01 April 2019 00:00
Orbit: 315 x 320 km, 54.5° (Epoch: 14 March)

Date Brightness Start Highest point End Pass type
(mag) Time Alt. Az. Time Alt. Az. Time Alt. Az.
27 Mar ? 13:18:18 10° SSE 13:19:23 12° SE 13:20:28 10° E visible
30 Mar ? 12:27:20 12° S 12:29:05 21° SE 12:31:13 10° ENE visible
31 Mar ? 12:42:07 23° SW 12:43:38 81° SE 12:46:22 10° NE visible
